DW2973 Weather Reports


time (UTC)temp
C
wind
direction
speed
KPH
gust
KPH
rain 1hr
cm
rain 24hr
cm
rain mn
cm
humidity
%
barometer
mb
20260505041525 7 355 0.0 0.0 0.00 0.00 0.00 84 1010.3
20260505040014 7 349 0.0 0.0 0.00 0.00 0.00 84 1010.3
20260505034513 7 349 0.0 0.0 0.00 0.00 0.00 84 1010.3
20260505033016 7 360 0.0 0.0 0.00 0.00 0.00 84 1010.3
20260505031512 7 346 0.0 0.0 0.00 0.00 0.00 84 1010.2
20260505030011 7 355 0.0 0.0 0.00 0.00 0.00 84 1010.2
20260505024531 7 338 0.0 0.0 0.00 0.00 0.00 83 1010.1
20260505023008 7 328 0.0 0.0 0.00 0.00 0.00 83 1010.3
20260505021507 7 323 0.0 0.0 0.00 0.00 0.00 84 1010.4
20260505020005 7 315 0.0 0.0 0.00 0.00 0.00 83 1010.6
20260505014504 7 331 0.0 0.0 0.00 0.00 0.00 83 1010.6
20260505013016 7 332 0.0 0.0 0.00 0.00 0.00 83 1010.5
20260505011503 7 336 0.0 0.0 0.00 0.00 0.00 83 1010.6
20260505010001 7 329 0.0 0.0 0.00 0.00 0.00 82 1010.7
20260505004601 7 336 0.0 0.0 0.00 0.00 0.00 82 1010.8
20260505003100 7 350 0.0 0.0 0.00 0.00 0.00 82 1010.8
20260505001559 8 277 0.0 0.0 0.00 0.00 0.00 82 1010.8
20260505000107 8 309 0.0 0.0 0.00 0.00 0.00 82 1010.8
20260504234627 8 311 0.0 0.0 0.00 0.00 0.00 82 1010.7
20260504233057 8 325 0.0 0.0 0.00 0.00 0.00 83 1010.6
20260504231602 8 323 0.0 0.0 0.00 0.00 0.00 82 1010.8
20260504230052 8 323 0.0 0.0 0.00 0.00 0.00 82 1010.9
20260504224550 8 322 0.0 0.0 0.00 0.00 0.00 81 1010.9
20260504223050 8 313 0.0 0.0 0.00 0.00 0.00 81 1010.8
20260504221557 8 10 0.0 0.0 0.00 0.00 0.00 81 1010.8
20260504220046 8 336 0.0 0.0 0.00 0.00 0.00 81 1011.0
20260504214545 8 291 0.0 0.0 0.00 0.00 0.15 82 1011.0
20260504213043 8 344 0.0 0.0 0.00 0.00 0.15 82 1010.9
20260504211549 9 344 0.0 0.0 0.00 0.00 0.15 82 1011.0
20260504210100 9 344 0.0 0.0 0.00 0.00 0.15 81 1011.0
20260504204548 9 344 0.0 0.0 0.00 0.00 0.15 83 1010.9
20260504203045 9 348 0.0 0.0 0.00 0.00 0.15 83 1010.9
20260504201545 9 348 0.0 0.0 0.00 0.00 0.15 82 1010.7
20260504200036 10 348 0.0 0.0 0.00 0.00 0.15 81 1010.8
20260504194556 10 348 0.0 0.0 0.00 0.00 0.15 80 1010.7
20260504193033 10 336 0.0 0.0 0.00 0.00 0.15 79 1010.7
20260504191542 11 250 0.0 0.0 0.00 0.00 0.15 76 1010.6
20260504190035 11 250 0.0 0.0 0.00 0.00 0.15 73 1010.5
20260504184537 12 250 0.0 0.0 0.00 0.00 0.15 70 1010.3
20260504183030 12 250 0.0 0.0 0.00 0.00 0.15 67 1010.2
20260504181529 13 248 0.0 0.0 0.00 0.00 0.15 65 1010.2
20260504180038 13 248 0.0 0.0 0.00 0.00 0.15 64 1010.2
20260504174528 13 248 0.0 0.0 0.00 0.00 0.15 63 1010.1
20260504173028 13 245 0.0 0.0 0.00 0.00 0.15 61 1010.2
20260504171528 15 326 0.0 0.0 0.00 0.00 0.15 60 1010.2
20260504081533 10 269 0.0 0.0 0.00 0.00 0.15 91 1008.2